| time (UTC) | temp F | wind direction | speed knots | gust knots | rain 1hr in | rain 24hr in | rain mn in | humidity % | barometer mb |
| 20260906230049 | 67 | 94 | 0.0 | 0.0 | 0.00 | 0.04 | 0.04 | 52 | 1012.4 |
| 20260906224541 | 68 | 98 | 0.0 | 0.0 | 0.00 | 0.04 | 0.04 | 50 | 1012.2 |
| 20260906223014 | 70 | 317 | 0.0 | 2.6 | 0.00 | 0.04 | 0.04 | 41 | 1012.1 |
| 20260906221549 | 70 | 350 | 0.0 | 4.3 | 0.00 | 0.04 | 0.04 | 40 | 1011.9 |
| 20260906220023 | 72 | 250 | 0.9 | 9.6 | 0.00 | 0.04 | 0.04 | 38 | 1011.8 |
| 20260906214600 | 74 | 34 | 0.0 | 7.0 | 0.00 | 0.04 | 0.04 | 35 | 1011.8 |
| 20260906213042 | 74 | 305 | 0.9 | 7.0 | 0.00 | 0.04 | 0.04 | 35 | 1011.6 |
| 20260906211512 | 74 | 34 | 1.7 | 9.6 | 0.00 | 0.04 | 0.04 | 36 | 1011.5 |
| 20260906210043 | 74 | 355 | 0.0 | 8.7 | 0.00 | 0.04 | 0.04 | 37 | 1011.5 |
| 20260906204543 | 74 | 282 | 2.6 | 7.8 | 0.00 | 0.04 | 0.04 | 35 | 1011.6 |
| 20260906203105 | 75 | 342 | 0.9 | 9.6 | 0.00 | 0.04 | 0.04 | 35 | 1011.6 |
| 20260906201533 | 75 | 91 | 1.7 | 9.6 | 0.00 | 0.04 | 0.04 | 35 | 1011.4 |
| 20260906200008 | 74 | 338 | 0.0 | 7.0 | 0.00 | 0.04 | 0.04 | 38 | 1011.4 |
| 20260906194547 | 74 | 315 | 1.7 | 9.6 | 0.00 | 0.04 | 0.04 | 36 | 1011.6 |
| 20260906193029 | 74 | 30 | 0.9 | 8.7 | 0.00 | 0.04 | 0.04 | 36 | 1011.5 |
| 20260906191504 | 73 | 336 | 0.0 | 4.3 | 0.00 | 0.04 | 0.04 | 41 | 1011.9 |
| 20260906190042 | 74 | 96 | 0.9 | 9.6 | 0.00 | 0.04 | 0.04 | 35 | 1011.9 |
| 20260906184516 | 74 | 321 | 2.6 | 10.4 | 0.00 | 0.04 | 0.04 | 37 | 1011.8 |
| 20260906183051 | 74 | 71 | 0.0 | 7.8 | 0.00 | 0.04 | 0.04 | 39 | 1011.8 |
| 20260906181532 | 74 | 312 | 1.7 | 7.0 | 0.00 | 0.04 | 0.04 | 39 | 1011.9 |
| 20260906180106 | 73 | 328 | 0.0 | 5.2 | 0.00 | 0.04 | 0.04 | 41 | 1012.1 |
| 20260906174535 | 73 | 5 | 2.6 | 7.0 | 0.00 | 0.04 | 0.04 | 40 | 1012.3 |
| 20260906173044 | 73 | 90 | 1.7 | 7.8 | 0.00 | 0.04 | 0.04 | 42 | 1012.1 |
| 20260906171529 | 72 | 227 | 0.0 | 4.3 | 0.00 | 0.04 | 0.04 | 43 | 1012.3 |
| 20260906170002 | 72 | 347 | 0.0 | 6.1 | 0.00 | 0.06 | 0.04 | 43 | 1012.5 |
| 20260906164537 | 71 | 279 | 1.7 | 7.0 | 0.00 | 0.06 | 0.04 | 45 | 1012.7 |
| 20260906163012 | 72 | 225 | 0.0 | 7.8 | 0.00 | 0.06 | 0.04 | 46 | 1012.9 |
| 20260906161549 | 71 | 317 | 0.0 | 5.2 | 0.00 | 0.06 | 0.04 | 45 | 1012.9 |
| 20260906160031 | 71 | 310 | 0.9 | 7.0 | 0.00 | 0.07 | 0.04 | 46 | 1013.2 |
| 20260906154509 | 70 | 338 | 0.0 | 5.2 | 0.00 | 0.07 | 0.04 | 44 | 1013.3 |
| 20260906153044 | 68 | 184 | 0.0 | 7.8 | 0.00 | 0.07 | 0.04 | 45 | 1013.5 |
| 20260906151518 | 68 | 20 | 0.0 | 6.1 | 0.00 | 0.07 | 0.04 | 47 | 1013.6 |
| 20260906150108 | 68 | 46 | 2.6 | 8.7 | 0.00 | 0.07 | 0.04 | 49 | 1013.7 |
| 20260906144543 | 66 | 59 | 2.6 | 8.7 | 0.00 | 0.07 | 0.04 | 51 | 1013.8 |
| 20260906143013 | 65 | 216 | 0.0 | 7.8 | 0.00 | 0.07 | 0.04 | 55 | 1013.8 |
| 20260906141550 | 64 | 88 | 0.9 | 8.7 | 0.00 | 0.07 | 0.04 | 63 | 1013.9 |
| 20260906140023 | 62 | 59 | 0.0 | 7.8 | 0.00 | 0.07 | 0.04 | 68 | 1014.0 |
| 20260906134556 | 60 | 16 | 0.0 | 3.5 | 0.00 | 0.07 | 0.04 | 74 | 1013.8 |
| 20260906133106 | 59 | 348 | 0.0 | 0.0 | 0.00 | 0.07 | 0.04 | 80 | 1013.7 |
| 20260906131515 | 59 | 328 | 0.0 | 0.0 | 0.00 | 0.07 | 0.04 | 84 | 1013.9 |
| 20260906130106 | 58 | 25 | 0.0 | 0.0 | 0.00 | 0.07 | 0.04 | 86 | 1013.8 |
| 20260906124526 | 58 | 360 | 0.0 | 0.0 | 0.00 | 0.07 | 0.04 | 86 | 1013.9 |
| 20260906123001 | 57 | 11 | 0.0 | 0.0 | 0.00 | 0.07 | 0.04 | 87 | 1014.0 |
| 20260906121542 | 56 | 61 | 0.0 | 0.0 | 0.00 | 0.07 | 0.04 | 89 | 1014.0 |
| 20260906120016 | 56 | 112 | 0.0 | 0.0 | 0.00 | 0.07 | 0.04 | 92 | 1014.0 |
| 20260906114553 | 55 | 317 | 0.0 | 0.0 | 0.00 | 0.07 | 0.04 | 93 | 1013.7 |
| 20260906113042 | 55 | 39 | 0.0 | 0.0 | 0.00 | 0.07 | 0.04 | 92 | 1013.6 |
| 20260906111515 | 55 | 51 | 0.0 | 0.0 | 0.02 | 0.07 | 0.04 | 92 | 1013.5 |
| 20260906110057 | 55 | 51 | 0.0 | 0.0 | 0.03 | 0.07 | 0.04 | 91 | 1013.4 |
| 20260906104528 | 55 | 286 | 0.0 | 0.0 | 0.04 | 0.07 | 0.04 | 91 | 1013.4 |
| 20260906103006 | 55 | 42 | 0.0 | 1.7 | 0.03 | 0.06 | 0.03 | 90 | 1013.4 |
| 20260906101545 | 55 | 61 | 0.0 | 0.9 | 0.02 | 0.05 | 0.02 | 89 | 1013.4 |
| 20260906100035 | 55 | 26 | 0.0 | 0.0 | 0.01 | 0.04 | 0.01 | 88 | 1013.2 |
| 20260906094511 | 55 | 38 | 0.0 | 0.0 | 0.00 | 0.03 | 0.00 | 87 | 1013.0 |
| 20260906093048 | 55 | 57 | 0.0 | 0.0 | 0.00 | 0.03 | 0.00 | 88 | 1012.9 |
| 20260906091526 | 55 | 36 | 0.0 | 0.0 | 0.00 | 0.03 | 0.00 | 87 | 1012.6 |
| 20260906090100 | 56 | 317 | 0.0 | 0.0 | 0.00 | 0.03 | 0.00 | 87 | 1012.7 |
| 20260906084535 | 56 | 317 | 0.0 | 0.0 | 0.00 | 0.03 | 0.00 | 87 | 1012.7 |
| 20260906083021 | 55 | 63 | 0.0 | 0.0 | 0.00 | 0.03 | 0.00 | 87 | 1012.5 |
| 20260906081508 | 55 | 67 | 0.0 | 0.0 | 0.00 | 0.03 | 0.00 | 89 | 1012.5 |
| 20260906080047 | 54 | 48 | 0.0 | 0.0 | 0.00 | 0.03 | 0.00 | 89 | 1012.2 |
| 20260906074532 | 54 | 46 | 0.0 | 0.0 | 0.00 | 0.03 | 0.00 | 89 | 1012.5 |
| 20260906073006 | 54 | 46 | 0.0 | 0.0 | 0.00 | 0.03 | 0.00 | 89 | 1012.7 |
| 20260906071542 | 54 | 46 | 0.0 | 0.0 | 0.00 | 0.03 | 0.00 | 89 | 1012.4 |
| 20260906070017 | 54 | 46 | 0.0 | 0.0 | 0.00 | 0.03 | 0.00 | 89 | 1012.2 |
| 20260906064554 | 54 | 46 | 0.0 | 0.0 | 0.00 | 0.03 | 0.00 | 88 | 1012.1 |
| 20260906063040 | 54 | 46 | 0.0 | 0.0 | 0.00 | 0.03 | 0.00 | 88 | 1012.0 |
| 20260906061516 | 54 | 46 | 0.0 | 0.0 | 0.00 | 0.03 | 0.00 | 87 | 1012.0 |
| 20260906060056 | 55 | 46 | 0.0 | 0.0 | 0.00 | 0.03 | 0.00 | 86 | 1012.1 |
| 20260906054542 | 55 | 46 | 0.0 | 0.0 | 0.00 | 0.03 | 0.00 | 86 | 1012.1 |
| 20260906053005 | 55 | 46 | 0.0 | 0.0 | 0.00 | 0.03 | 0.00 | 85 | 1012.1 |
| 20260906051603 | 56 | 46 | 0.0 | 0.0 | 0.00 | 0.03 | 0.00 | 84 | 1012.0 |
| 20260906050017 | 56 | 46 | 0.0 | 0.0 | 0.00 | 0.03 | 0.00 | 83 | 1012.1 |
| 20260906044603 | 56 | 46 | 0.0 | 0.0 | 0.00 | 0.03 | 0.00 | 83 | 1011.9 |
| 20260906043043 | 56 | 331 | 0.0 | 0.0 | 0.00 | 0.03 | 0.00 | 83 | 1011.9 |
| 20260906041513 | 57 | 92 | 0.0 | 0.0 | 0.00 | 0.03 | 0.00 | 82 | 1012.0 |
| 20260906040125 | 57 | 92 | 0.0 | 0.0 | 0.00 | 0.03 | 0.03 | 81 | 1012.0 |
| 20260906034524 | 58 | 97 | 0.0 | 0.0 | 0.00 | 0.03 | 0.03 | 81 | 1011.9 |
| 20260906033030 | 59 | 97 | 0.0 | 0.0 | 0.00 | 0.03 | 0.03 | 79 | 1011.9 |
| 20260906031549 | 59 | 97 | 0.0 | 0.0 | 0.00 | 0.03 | 0.03 | 78 | 1011.8 |
| 20260906030032 | 60 | 104 | 0.0 | 0.0 | 0.00 | 0.03 | 0.03 | 78 | 1011.7 |
| 20260906024505 | 60 | 113 | 0.0 | 0.0 | 0.00 | 0.03 | 0.03 | 78 | 1011.6 |
| 20260906023043 | 60 | 89 | 0.0 | 0.0 | 0.00 | 0.03 | 0.03 | 78 | 1011.5 |
| 20260906021516 | 59 | 28 | 0.0 | 0.0 | 0.00 | 0.03 | 0.03 | 80 | 1011.4 |
| 20260906020055 | 59 | 53 | 0.0 | 0.0 | 0.00 | 0.03 | 0.03 | 81 | 1011.3 |
| 20260906014530 | 58 | 314 | 0.0 | 0.0 | 0.00 | 0.03 | 0.03 | 82 | 1011.5 |
| 20260906013018 | 59 | 95 | 0.0 | 0.0 | 0.00 | 0.03 | 0.03 | 80 | 1011.4 |
| 20260906011548 | 60 | 95 | 0.0 | 0.0 | 0.00 | 0.03 | 0.03 | 78 | 1011.4 |
| 20260906010034 | 61 | 95 | 0.0 | 0.0 | 0.00 | 0.03 | 0.03 | 77 | 1011.4 |
| 20260906004519 | 62 | 95 | 0.0 | 0.0 | 0.00 | 0.03 | 0.03 | 75 | 1011.3 |
| 20260906003056 | 62 | 95 | 0.0 | 0.0 | 0.00 | 0.03 | 0.03 | 74 | 1011.1 |
| 20260906001533 | 62 | 95 | 0.0 | 0.0 | 0.00 | 0.03 | 0.03 | 73 | 1011.0 |
| 20260906000006 | 62 | 56 | 0.0 | 0.0 | 0.00 | 0.03 | 0.03 | 76 | 1011.0 |
| 20260905234546 | 61 | 140 | 0.0 | 0.0 | 0.00 | 0.03 | 0.03 | 82 | 1010.9 |
| 20260905233025 | 62 | 140 | 0.0 | 0.0 | 0.00 | 0.03 | 0.03 | 84 | 1010.7 |
| 20260905231504 | 63 | 140 | 0.0 | 0.0 | 0.00 | 0.03 | 0.03 | 83 | 1010.6 |